User: anonymous   Login
Location: Unspecified
(0.0000°N, 0.0000°E)
Time: 06:37:26
(UTC+00:00)
Language:

SAUDISAT 3 - Orbit

View from above orbital plane
View from above orbital plane
View from above satellite
View from above satellite

Ground track
Ground track

The orbit data is extracted from the following two-line orbital elements,

1 31118U 07012B   19082.66991251 -.00000046  00000-0  56265-7 0  9995
2 31118  97.8046  54.2336 0015803  10.5232 349.6267 14.69126341639634
Epoch (UTC): 23 March 2019 16:04:40
Eccentricity: 0.0015803
inclination: 97.8046°
perigee height: 653 km
apogee height: 675 km
right ascension of ascending node: 54.2336°
argument of perigee: 10.5232°
revolutions per day: 14.69126341
mean anomaly at epoch: 349.6267°
orbit number at epoch: 63963

The dashed part of the orbit path shows where the satellite is in the earth's shadow,  

DLR